Virginia Peak (RGX), Nevada Weather observations

 Day   Time    Ave.   Ave.  Ave.  Vector  Max.   Total    Solar  
  of    of     Air    Rel.  Wind   Wind   Wind  Precip.   Rad.   
Year   Day     Temp.  Hum.  Speed  Dir.   Gust                   
2016   (PST)    F      %     mph   deg.    mph    in.     W/m2  
----------------------------------------------------------------
 268    0:00   41.0    84   20.0   307    21.0   999.00     999
 268    0:15   41.0    86    0.0   306    23.0   999.00     999
 268    0:30   39.0    86   21.0   321    25.0   999.00     999
 268    0:45   40.0    88   21.0   313    26.0   999.00     999
 268    1:00   40.0    89   20.0   313    23.0   999.00     999
 268    1:15   40.0    88   19.0   314    25.0   999.00     999
 268    1:30   40.0    85   23.0   312    23.0   999.00     999
 268    1:45   40.0    86   19.0   311    25.0   999.00     999
 268    2:00   39.0    83   17.0   310    27.0   999.00     999
 268    2:15   40.0    84   26.0   289    25.0   999.00     999
 268    2:30   40.0    81   27.0   303    28.0   999.00     999
 268    2:45   41.0    75    0.0   300    28.0   999.00     999
 268    3:00   39.0    75   18.0   295    32.0   999.00     999
 268    3:15   40.0    79   15.0   309    27.0   999.00     999
 268    3:30   38.0    81   14.0   318    19.0   999.00     999
 268    3:45   39.0    72   17.0   304    16.0   999.00     999
 268    4:00   39.0    83   17.0   322    19.0   999.00     999
 268    4:15   38.0    74    0.0   312    21.0   999.00     999
 268    4:30   39.0    80   15.0   315    20.0   999.00     999
 268    4:45   37.0    84   15.0   316    19.0   999.00     999
 268    5:00   39.0    80   13.0   311    19.0   999.00     999
 268    5:15   39.0    76   14.0   319    17.0   999.00     999
 268    5:30   39.0    75    0.0   323    17.0   999.00     999
 268    5:45   40.0    70    0.0   323    15.0   999.00     999
 268    6:00   40.0    64    0.0   350    10.0   999.00     999
 268    6:15   41.0    56    0.0   325     6.0   999.00     999
 268    6:30   42.0    46    0.0    77     5.0   999.00     999
 268    6:45   42.0    46    0.0    85     4.0   999.00     999
 268    7:00   43.0    40    0.0    84     5.0   999.00     999
 268    7:15   41.0    66    0.0    82     5.0   999.00     999
 268    7:30   43.0    67    0.0     3     7.0   999.00     999
 268    7:45   41.0    75    0.0    38     4.0   999.00     999
 268    8:00   41.0    79    9.0    71     8.0   999.00     999
 268    8:15   42.0    77    0.0    78    10.0   999.00     999

Return to Virginia Peak (RGX) graphs page.


Western Regional Climate Center,wrcc@dri.edu